STARLINK-3644, 51987

Orbit data source: Space-Track

STARLINK-3644, 51987 is a payload satellite owned by SpaceX/Seattle (US) in LEO that was launched on Wed, 09 Mar 2022 UTC via an FALCON 9 launch vehicle from the Air Force Eastern Test Range (AFETR). Payload-class satellites include a variety of spacecraft equipped with specific instruments for various scientific and technological missions. These include communications satellites like Starlink; space stations such as the ISS; scientific satellites like the Hubble; Earth observation satellites from companies like Planet Labs, Umbra, and HawkEye 360; GPS; miniature CubeSats for education and research; and military/defense satellites.

Loading next visibility...
Identifier
51987, 2022-025AH
Orbit
LEO
Country
Flag of USUS
Related business
Manufacturer
SpaceX/Seattle
Mission
Operational Commercial Communications
Bus & Motor
STARLINK, Unknown motor
Mass
297 kg wet, ~275 kg dry
Launch date (UTC)
2022-03-09 (4 years ago)
Launch vehicle
FALCON 9
Launch site
Air Force Eastern Test Range (AFETR)
Object type
Payload
Rocket body
Debris
Shape & HBR
Box + 1 Pan, 10.1 m
Radar Cross Section
13.562 m², Large (>1 m²)

Expand to show TLE details & history
Last TLE update: 8 hours ago

TLE from 8 hours ago
0 STARLINK-3644
1 51987U 22025AH  25346.94020481 -.00000708  00000-0 -26416-4 0  9999
2 51987  53.2194  68.5556 0001404  90.8178 269.2975 15.08833272207966
Epoch: 2025-12-12T22:33Z
TLE epoch observation values (Epoch: 2025-12-12T22:33:53.695Z)
Latitude
-0.00003°
Longitude
8.20723°
Altitude
540.674 km
Speed
7.593 km/s
True Right ascension
04h 34m 13s
True Declination
0° 00' 00"
Sunlit
Object was in full shadow at epoch
Visualization orbit readout
Latitude
Unknown
Longitude
Unknown
Altitude
Unknown
Speed
Unknown
Apparent Right ascension
Unknown
Apparent Declination
Unknown
Sunlit
N/A
Visualization observer readout
Local Sidereal Time
05:22:27
Azimuth
Unknown
Elevation
Unknown
Doppler factor
Unknown
Orbital elements
Apogee altitude
540.98 km
Perigee altitude
539.037 km
Semi-major axis
6,918.146 km
Eccentricity
0.00014
Inclination
53.2194°
RAAN
68.5556°
Arg. of periapsis
90.8178°
True anomaly
269.28141°
Mean anomaly
269.2975°
Eccentric anomaly
269.28946°
Mean motion
3.77189 °/min
Orbital period
95.44 mins
BSTAR
-0.000026416
Loading maneuver chart data...
Computing Atmospheric mass density...
Loading historical data...
Loading historical data...
Loading historical data...
Loading historical data...
Loading historical data...
Loading historical data...
Loading historical data...

Documentation

Showing up to 5 results
|